Location: Caltech
(34.1382°N, 118.1253°W)
Time: 19:13:20
(UTC-07:00)

CZ-2C R/B - Visible Passes

Search period start: 07 July 2015 00:00
Search period end: 17 July 2015 00:00
Orbit: 668 x 787 km, 98.1° (Epoch: 06 July)

Date Brightness Start Highest point End Pass type
(mag) Time Alt. Az. Time Alt. Az. Time Alt. Az.
07 Jul 5.1 20:38:38 10° SW 20:41:27 15° W 20:44:02 10° WNW visible
09 Jul 5.1 20:41:40 10° SW 20:44:12 14° W 20:46:28 10° WNW visible
11 Jul 5.2 20:44:44 10° WSW 20:46:56 13° W 20:48:52 10° WNW visible
13 Jul 5.3 20:47:54 10° WSW 20:49:41 12° W 20:51:11 10° WNW visible
15 Jul 5.4 20:51:13 10° WSW 20:52:27 11° W 20:53:19 10° WNW visible
